User: anonymous   Login
Location: Oronoko Observatory
(41.9167°N, 86.3833°W)
Time: 22:50:22
(UTC-04:00)
Language:

PAYLOAD A - Orbit

View from above orbital plane
View from above orbital plane
View from above satellite
View from above satellite

Ground track
Ground track

The orbit data is extracted from the following two-line orbital elements,

1 27840U 03031A   15185.90096227  .00000054  00000-0  29688-4 0  9999
2 27840 098.2067 203.6058 0099603 109.1503 301.2574 14.38811736630749
Epoch (UTC): 04 July 2015 21:37:23
Eccentricity: 0.0099603
inclination: 98.2067°
perigee height: 691 km
apogee height: 833 km
right ascension of ascending node: 203.6058°
argument of perigee: 109.1503°
revolutions per day: 14.38811736
mean anomaly at epoch: 301.2574°
orbit number at epoch: 63074

The dashed part of the orbit path shows where the satellite is in the earth's shadow,  

DLR